Time,TemperatureF,DewpointF,PressureIn,WindDirection,WindDirectionDegrees,WindSpeedMPH,WindSpeedGustMPH,Humidity,HourlyPrecipIn,Conditions,Clouds,dailyrainin,SoftwareType,DateUTC
2013-09-02 00:05:00,70.7,69.5,29.71,SSE,150,2.0,4.0,96,0.00,,,0.00,Wunderground v.1.15,2013-09-02 04:05:00,
2013-09-02 00:10:00,70.6,69.4,29.71,ESE,114,2.0,2.0,96,0.00,,,0.00,Wunderground v.1.15,2013-09-02 04:10:00,
2013-09-02 00:15:00,70.7,69.5,29.71,SE,137,3.0,3.0,96,0.00,,,0.00,Wunderground v.1.15,2013-09-02 04:15:00,
2013-09-02 00:25:00,70.8,69.6,29.70,SE,125,2.0,6.0,96,0.00,,,0.00,Wunderground v.1.15,2013-09-02 04:25:00,
2013-09-02 00:30:00,70.8,69.6,29.70,SSE,150,1.0,1.0,96,0.00,,,0.00,Wunderground v.1.15,2013-09-02 04:30:00,
2013-09-02 00:35:00,70.7,69.5,29.72,SSE,151,1.0,9.0,96,0.00,,,0.00,Wunderground v.1.15,2013-09-02 04:35:00,
2013-09-02 00:45:00,70.8,69.6,29.72,South,183,1.0,9.0,96,0.00,,,0.00,Wunderground v.1.15,2013-09-02 04:45:00,
2013-09-02 00:50:00,70.7,69.5,29.72,South,180,0.0,9.0,96,0.00,,,0.00,Wunderground v.1.15,2013-09-02 04:50:00,
2013-09-02 00:55:00,70.7,69.5,29.72,South,180,0.0,9.0,96,0.00,,,0.00,Wunderground v.1.15,2013-09-02 04:55:00,
2013-09-02 01:05:00,70.7,69.5,29.72,South,180,0.0,9.0,96,0.00,,,0.00,Wunderground v.1.15,2013-09-02 05:05:00,
2013-09-02 01:15:00,70.7,69.2,29.72,South,180,0.0,6.0,95,0.00,,,0.00,Wunderground v.1.15,2013-09-02 05:15:00,
2013-09-02 01:25:00,70.2,68.1,29.74,WSW,258,2.0,6.0,93,0.00,,,0.00,Wunderground v.1.15,2013-09-02 05:25:00,
2013-09-02 01:30:00,69.8,66.7,29.74,South,178,1.0,1.0,90,0.00,,,0.00,Wunderground v.1.15,2013-09-02 05:30:00,
2013-09-02 01:45:00,68.6,65.2,29.75,East,83,1.0,6.0,89,0.00,,,0.00,Wunderground v.1.15,2013-09-02 05:45:00,
2013-09-02 11:20:00,69.9,68.7,29.69,WSW,240,2.0,2.0,96,0.00,,,0.62,Wunderground v.1.15,2013-09-02 15:20:00,
2013-09-02 11:25:00,69.9,68.7,29.69,WSW,240,2.0,6.0,96,0.00,,,0.62,Wunderground v.1.15,2013-09-02 15:25:00,
2013-09-02 11:35:00,69.9,69.3,29.69,SE,142,0.0,5.0,98,0.00,,,0.62,Wunderground v.1.15,2013-09-02 15:35:00,
2013-09-02 11:45:00,70.4,69.5,29.69,SE,142,0.0,5.0,97,0.00,,,0.62,Wunderground v.1.15,2013-09-02 15:45:00,
2013-09-02 11:55:00,71.2,69.7,29.69,SE,142,0.0,5.0,95,0.00,,,0.62,Wunderground v.1.15,2013-09-02 15:55:00,
2013-09-02 12:05:00,72.4,70.6,29.69,SE,142,1.0,6.0,94,0.00,,,0.62,Wunderground v.1.15,2013-09-02 16:05:00,
2013-09-02 12:15:00,73.2,69.1,29.69,SW,217,2.0,6.0,87,0.00,,,0.62,Wunderground v.1.15,2013-09-02 16:15:00,
2013-09-02 12:20:00,74.0,70.6,29.70,SW,217,2.0,2.0,89,0.00,,,0.62,Wunderground v.1.15,2013-09-02 16:20:00,
2013-09-02 12:25:00,74.4,68.9,29.70,South,175,2.0,4.0,83,0.00,,,0.62,Wunderground v.1.15,2013-09-02 16:25:00,
2013-09-02 12:30:00,74.7,69.5,29.70,South,172,2.0,2.0,84,0.00,,,0.62,Wunderground v.1.15,2013-09-02 16:30:00,
2013-09-02 12:35:00,75.2,69.3,29.69,WSW,250,2.0,3.0,82,0.00,,,0.62,Wunderground v.1.15,2013-09-02 16:35:00,
2013-09-02 12:45:00,75.7,70.2,29.69,WSW,250,1.0,7.0,83,0.00,,,0.62,Wunderground v.1.15,2013-09-02 16:45:00,
2013-09-02 12:50:00,76.2,70.3,29.69,WSW,250,0.0,7.0,82,0.00,,,0.62,Wunderground v.1.15,2013-09-02 16:50:00,
2013-09-02 12:55:00,76.9,71.0,29.69,WSW,250,0.0,7.0,82,0.00,,,0.62,Wunderground v.1.15,2013-09-02 16:55:00,
2013-09-02 13:05:00,78.1,72.2,29.69,WSW,250,0.0,7.0,82,0.00,,,0.62,Wunderground v.1.15,2013-09-02 17:05:00,
2013-09-02 13:15:00,78.4,71.3,29.69,WSW,250,0.0,6.0,79,0.00,,,0.62,Wunderground v.1.15,2013-09-02 17:15:00,
2013-09-02 13:25:00,77.8,70.0,29.69,WSW,250,1.0,6.0,77,0.00,,,0.62,Wunderground v.1.15,2013-09-02 17:25:00,
2013-09-02 13:30:00,78.0,71.7,29.69,WSW,250,1.0,1.0,81,0.00,,,0.62,Wunderground v.1.15,2013-09-02 17:30:00,
2013-09-02 13:35:00,78.6,72.6,29.68,WSW,250,0.0,1.0,82,0.00,,,0.62,Wunderground v.1.15,2013-09-02 17:35:00,
2013-09-02 13:45:00,78.9,72.2,29.68,WSW,250,0.0,4.0,80,0.00,,,0.62,Wunderground v.1.15,2013-09-02 17:45:00,
2013-09-02 13:50:00,78.5,72.2,29.68,SE,138,0.0,1.0,81,0.00,,,0.62,Wunderground v.1.15,2013-09-02 17:50:00,
2013-09-02 14:00:00,79.1,72.8,29.68,ENE,73,0.0,1.0,81,0.00,,,0.62,Wunderground v.1.15,2013-09-02 18:00:00,
2013-09-02 14:05:00,79.6,71.4,29.68,SSW,212,0.0,5.0,76,0.00,,,0.62,Wunderground v.1.15,2013-09-02 18:05:00,
2013-09-02 14:15:00,80.5,72.2,29.68,WSW,250,0.0,5.0,76,0.00,,,0.62,Wunderground v.1.15,2013-09-02 18:15:00,
2013-09-02 14:25:00,80.4,71.7,29.67,West,260,3.0,5.0,75,0.00,,,0.62,Wunderground v.1.15,2013-09-02 18:25:00,
2013-09-02 14:35:00,80.2,72.7,29.66,SSE,148,1.0,6.0,78,0.00,,,0.62,Wunderground v.1.15,2013-09-02 18:35:00,
2013-09-02 14:45:00,79.2,73.6,29.66,SSE,148,0.0,6.0,83,0.00,,,0.62,Wunderground v.1.15,2013-09-02 18:45:00,
2013-09-02 14:55:00,79.8,73.4,29.66,ESE,119,1.0,6.0,81,0.00,,,0.62,Wunderground v.1.15,2013-09-02 18:55:00,
2013-09-02 15:00:00,80.0,72.5,29.66,ESE,119,1.0,1.0,78,0.00,,,0.62,Wunderground v.1.15,2013-09-02 19:00:00,
2013-09-02 15:05:00,79.7,71.5,29.65,SE,126,0.0,6.0,76,0.00,,,0.62,Wunderground v.1.15,2013-09-02 19:05:00,
2013-09-02 15:15:00,80.4,72.1,29.65,SE,126,0.0,6.0,76,0.00,,,0.62,Wunderground v.1.15,2013-09-02 19:15:00,
2013-09-02 15:20:00,80.3,72.4,29.65,SE,126,0.0,6.0,77,0.00,,,0.62,Wunderground v.1.15,2013-09-02 19:20:00,
2013-09-02 15:30:00,79.8,71.2,29.65,SE,124,1.0,1.0,75,0.00,,,0.62,Wunderground v.1.15,2013-09-02 19:30:00,
2013-09-02 15:35:00,80.4,70.9,29.63,SSE,157,1.0,5.0,73,0.00,,,0.62,Wunderground v.1.15,2013-09-02 19:35:00,
2013-09-02 15:45:00,80.7,71.6,29.63,South,173,1.0,5.0,74,0.00,,,0.62,Wunderground v.1.15,2013-09-02 19:45:00,
2013-09-02 15:55:00,80.8,70.9,29.63,South,173,2.0,5.0,72,0.00,,,0.62,Wunderground v.1.15,2013-09-02 19:55:00,
2013-09-02 16:00:00,81.0,71.5,29.63,South,173,1.0,1.0,73,0.00,,,0.62,Wunderground v.1.15,2013-09-02 20:00:00,
2013-09-02 16:05:00,80.7,70.8,29.62,SE,136,1.0,2.0,72,0.00,,,0.62,Wunderground v.1.15,2013-09-02 20:05:00,
2013-09-02 16:15:00,80.6,71.1,29.62,SE,133,2.0,9.0,73,0.00,,,0.62,Wunderground v.1.15,2013-09-02 20:15:00,
2013-09-02 16:20:00,80.3,70.4,29.62,SE,128,2.0,9.0,72,0.00,,,0.62,Wunderground v.1.15,2013-09-02 20:20:00,
2013-09-02 16:25:00,79.9,71.3,29.62,ESE,103,2.0,9.0,75,0.00,,,0.62,Wunderground v.1.15,2013-09-02 20:25:00,
2013-09-02 16:35:00,79.6,71.0,29.61,SE,139,1.0,3.0,75,0.00,,,0.62,Wunderground v.1.15,2013-09-02 20:35:00,
2013-09-02 16:45:00,80.5,71.8,29.61,ESE,113,2.0,7.0,75,0.00,,,0.62,Wunderground v.1.15,2013-09-02 20:45:00,
2013-09-02 16:55:00,80.9,71.8,29.60,ESE,118,2.0,2.0,74,0.00,,,0.62,Wunderground v.1.15,2013-09-02 20:55:00,
2013-09-02 17:00:00,80.8,71.7,29.60,East,89,3.0,3.0,74,0.00,,,0.62,Wunderground v.1.15,2013-09-02 21:00:00,
2013-09-02 17:05:00,80.9,71.8,29.58,SE,134,3.0,5.0,74,0.00,,,0.62,Wunderground v.1.15,2013-09-02 21:05:00,
2013-09-02 17:15:00,80.2,71.2,29.58,South,169,3.0,10.0,74,0.00,,,0.62,Wunderground v.1.15,2013-09-02 21:15:00,
2013-09-02 17:20:00,79.7,71.1,29.59,ESE,108,3.0,3.0,75,0.00,,,0.62,Wunderground v.1.15,2013-09-02 21:20:00,
2013-09-02 17:30:00,78.3,71.6,29.59,ESE,105,0.0,10.0,80,0.00,,,0.62,Wunderground v.1.15,2013-09-02 21:30:00,
2013-09-02 17:35:00,77.9,72.0,29.59,ESE,105,0.0,10.0,82,0.00,,,0.62,Wunderground v.1.15,2013-09-02 21:35:00,
2013-09-02 17:45:00,76.9,71.0,29.59,WNW,285,1.0,17.0,82,0.00,,,0.62,Wunderground v.1.15,2013-09-02 21:45:00,
2013-09-02 17:50:00,69.2,63.5,29.67,West,271,9.0,12.0,82,3.37,,,0.69,Wunderground v.1.15,2013-09-02 21:50:00,
2013-09-02 17:55:00,65.0,62.3,29.67,West,279,14.0,14.0,91,1.34,,,0.94,Wunderground v.1.15,2013-09-02 21:55:00,